Terug naar catalogus

STARLINK-30756

ActiefCommunicatieVLEO
NORAD 58129·PAYLOAD·🇺🇸 United States

Gelanceerd Oct 22, 2023 vanaf Cape Canaveral Space Force Station

Loading…

Volgende Passages (komende 24 uur)

TLE

VersSource: CelesTrak SupGP

Epoch: Sep 14, 2026, 21:39 UTC

1 58129C 23162M   26257.90256944 -.00011338  00000+0 -41072-3 0  2571
2 58129  42.9999 143.8960 0001363 258.2639 146.2325 15.27579731    19

Volg STARLINK-30756 in realtime met AllMySat

Download on the App Store